Location: Ferintosh
(52.7647°N, 112.9692°W)
Time: 13:50:26
(UTC+00:00)

Transit 2A Rocket - Pass Details

Date: 24 May 2024
Orbit: 583 x 910 km, 66.7° (Epoch: 14 June)

Event Time Altitude Azimuth Distance (km) Brightness Sun altitude
Rises 15:31:36 0° 302° (WNW) 3,246 7.8 35.0°
Reaches altitude 10° 15:34:36 10° 320° (NW) 2,381 7.3 35.4°
Maximum altitude 15:38:37 20° 7° (N) 1,848 7.1 36.0°
Drops below altitude 10° 15:42:50 10° 53° (NE) 2,520 8.3 36.6°
Sets 15:46:07 0° 70° (ENE) 3,499 9.1 37.1°
